SAS4079 ENEV-ENGM

Flight info

Callsign SAS4079
Flight time N/A
Altitude 36000
Route GEPTU DCT GUBAV DCT SOMUB DCT BELGU
Aircraft A320/M-SDE3FGHIRWY/LB1

Departure

Time 2026-04-27 19:13
Airport Harstad/Narvik Airport (ENEV)

Arrival

Time N/A
Airport Oslo-Gardermoen International Airport (ENGM)
Time Latitude Longitude Altitude Speed Heading
2026-04-27 18:56 68.48975 16.68539 92 ft 0 kts 357°
2026-04-27 19:06 68.48969 16.68540 92 ft 2 kts 357°
2026-04-27 19:07 68.48952 16.68542 65 ft 2 kts 357°
2026-04-27 19:07 68.48936 16.68544 94 ft 2 kts 357°
2026-04-27 19:07 68.48922 16.68546 92 ft 2 kts 357°
2026-04-27 19:07 68.48908 16.68548 93 ft 2 kts 357°
2026-04-27 19:08 68.48894 16.68551 93 ft 2 kts 320°
2026-04-27 19:08 68.48887 16.68573 97 ft 0 kts 276°
2026-04-27 19:09 68.48887 16.68567 97 ft 1 kts 276°
2026-04-27 19:09 68.48890 16.68485 92 ft 9 kts 276°
2026-04-27 19:10 68.48879 16.68264 89 ft 14 kts 225°
2026-04-27 19:10 68.48781 16.68236 89 ft 15 kts 177°
2026-04-27 19:10 68.48675 16.68249 90 ft 15 kts 178°
2026-04-27 19:10 68.48614 16.68256 93 ft 11 kts 177°
2026-04-27 19:11 68.48526 16.68267 98 ft 11 kts 177°
2026-04-27 19:11 68.48430 16.68280 101 ft 17 kts 177°
2026-04-27 19:11 68.48289 16.68296 103 ft 23 kts 178°
2026-04-27 19:11 68.48120 16.68313 102 ft 25 kts 178°
2026-04-27 19:12 68.47982 16.68324 100 ft 16 kts 178°
2026-04-27 19:12 68.47901 16.68182 94 ft 16 kts 270°
2026-04-27 19:12 68.47941 16.67972 92 ft 12 kts 341°
2026-04-27 19:12 68.48034 16.67953 89 ft 20 kts 357°
2026-04-27 19:13 68.48417 16.67911 95 ft 88 kts 358°
2026-04-27 19:13 68.49218 16.67809 97 ft 139 kts 356°
2026-04-27 19:13 68.50228 16.67675 592 ft 143 kts 356°
2026-04-27 19:13 68.51171 16.67605 1191 ft 133 kts 356°
2026-04-27 19:14 68.52184 16.67508 1161 ft 169 kts 356°
2026-04-27 19:14 68.53509 16.67331 1267 ft 206 kts 356°
2026-04-27 19:14 68.55016 16.67146 1847 ft 224 kts 356°
2026-04-27 19:14 68.56581 16.66964 2872 ft 226 kts 356°
2026-04-27 19:15 68.58136 16.66780 3907 ft 227 kts 356°
2026-04-27 19:15 68.59730 16.66588 4886 ft 232 kts 355°
2026-04-27 19:15 68.61337 16.66002 5789 ft 236 kts 336°
2026-04-27 19:15 68.62580 16.63105 6635 ft 242 kts 299°
2026-04-27 19:16 68.62908 16.58605 7532 ft 248 kts 266°
2026-04-27 19:16 68.62834 16.57018 7837 ft 250 kts 262°
2026-04-27 19:16 68.62011 16.49309 9345 ft 257 kts 253°
2026-04-27 19:16 68.61412 16.44659 10248 ft 260 kts 254°
2026-04-27 19:17 68.60829 16.39922 11049 ft 265 kts 256°
2026-04-27 19:17 68.60275 16.35065 11826 ft 270 kts 258°
2026-04-27 19:17 68.59745 16.30113 12562 ft 273 kts 259°
2026-04-27 19:17 68.59112 16.25127 13247 ft 287 kts 249°
2026-04-27 19:18 68.57806 16.20626 13477 ft 322 kts 221°
2026-04-27 19:18 68.55714 16.17678 13704 ft 349 kts 205°
2026-04-27 19:18 68.53440 16.15253 14203 ft 359 kts 204°
2026-04-27 19:18 68.51042 16.12827 14770 ft 366 kts 204°
2026-04-27 19:19 68.49450 16.11243 15145 ft 371 kts 204°
2026-04-27 19:19 68.47008 16.08810 15722 ft 377 kts 204°
2026-04-27 19:19 68.43716 16.05486 16465 ft 384 kts 205°
2026-04-27 19:19 68.42017 16.03749 16824 ft 389 kts 205°
2026-04-27 19:20 68.38627 16.00250 17540 ft 398 kts 205°
2026-04-27 19:20 68.36899 15.98462 17917 ft 402 kts 206°
2026-04-27 19:20 68.34272 15.95755 18495 ft 407 kts 206°
2026-04-27 19:20 68.31607 15.93013 19029 ft 413 kts 206°
2026-04-27 19:21 68.28898 15.90236 19556 ft 417 kts 206°
2026-04-27 19:21 68.26174 15.87449 20104 ft 422 kts 206°
2026-04-27 19:21 68.23408 15.84635 20661 ft 426 kts 206°
2026-04-27 19:21 68.20624 15.81815 21200 ft 431 kts 206°
2026-04-27 19:22 68.17795 15.78968 21730 ft 435 kts 206°
2026-04-27 19:22 68.14946 15.76119 22267 ft 439 kts 206°
2026-04-27 19:22 68.12067 15.73245 22796 ft 443 kts 206°
2026-04-27 19:22 68.09167 15.70345 23308 ft 447 kts 206°
2026-04-27 19:23 68.06232 15.67412 23863 ft 451 kts 206°
2026-04-27 19:23 68.03284 15.64468 24331 ft 454 kts 206°
2026-04-27 19:23 68.00312 15.61506 24795 ft 458 kts 206°
2026-04-27 19:23 67.97317 15.58528 25249 ft 460 kts 206°
2026-04-27 19:24 67.94301 15.55544 25689 ft 463 kts 206°
2026-04-27 19:24 67.91268 15.52566 26120 ft 466 kts 206°
2026-04-27 19:24 67.88218 15.49587 26547 ft 469 kts 206°
2026-04-27 19:24 67.85153 15.46590 26985 ft 471 kts 206°
2026-04-27 19:25 67.82103 15.43605 27408 ft 474 kts 206°
2026-04-27 19:25 67.78958 15.40539 27800 ft 476 kts 206°
2026-04-27 19:25 67.75880 15.37544 28206 ft 479 kts 206°
2026-04-27 19:25 67.72747 15.34514 28608 ft 481 kts 206°
2026-04-27 19:26 67.69589 15.31472 29016 ft 484 kts 206°
2026-04-27 19:26 67.66416 15.28416 29421 ft 487 kts 206°
2026-04-27 19:26 67.63229 15.25356 29771 ft 490 kts 206°
2026-04-27 19:26 67.60016 15.22276 30148 ft 492 kts 206°
2026-04-27 19:27 67.56798 15.19196 30529 ft 495 kts 206°
2026-04-27 19:27 67.53550 15.16098 30854 ft 497 kts 206°
2026-04-27 19:27 67.50292 15.13005 31199 ft 499 kts 205°
2026-04-27 19:27 67.47028 15.09914 31493 ft 500 kts 205°
2026-04-27 19:28 67.43757 15.06829 31878 ft 500 kts 205°
2026-04-27 19:28 67.40492 15.03768 32386 ft 498 kts 205°
2026-04-27 19:28 67.37234 15.00721 32881 ft 497 kts 205°
2026-04-27 19:28 67.33993 14.97696 33384 ft 495 kts 204°
2026-04-27 19:29 67.30752 14.94680 33875 ft 493 kts 204°
2026-04-27 19:29 67.27522 14.91677 34344 ft 492 kts 204°
2026-04-27 19:29 67.24307 14.88689 34746 ft 490 kts 204°
2026-04-27 19:29 67.21101 14.85719 35128 ft 489 kts 204°
2026-04-27 19:30 67.17898 14.82759 35505 ft 488 kts 204°
2026-04-27 19:30 67.14709 14.79817 35862 ft 487 kts 204°
2026-04-27 19:30 67.11521 14.76890 36211 ft 486 kts 204°
2026-04-27 19:30 67.08329 14.73967 36379 ft 486 kts 204°
2026-04-27 19:31 67.05144 14.71061 36416 ft 484 kts 203°
2026-04-27 19:31 66.98806 14.65320 36417 ft 483 kts 203°
2026-04-27 19:32 66.92522 14.59652 36418 ft 482 kts 203°
2026-04-27 19:32 66.86193 14.53961 36407 ft 482 kts 203°
2026-04-27 19:33 66.79860 14.48309 36419 ft 482 kts 203°
2026-04-27 19:33 66.73517 14.42660 36426 ft 483 kts 203°
2026-04-27 19:34 66.67169 14.37036 36424 ft 483 kts 203°
2026-04-27 19:34 66.60824 14.31454 36424 ft 483 kts 203°
2026-04-27 19:35 66.54463 14.25926 36415 ft 484 kts 203°